[[{"header":{"parameterUnit":"m.s-1","parameterCategory":1,"la1":30.2991,"la2":30.254,"lo1":-89.0895,"lo2":-89.0444,"dy":0.0017,"dx":0.0017,"nx":28,"ny":28,"refTime":"2025-04-25T21:00:00:Z","depth":0,"parameterNumber":2,"parameterNumberName":"U-component_of_WINDS"},"data":[0,0,0,0,0,0,0,0,0,0,0,0,0,0,0,0,0,0,0,0,0,0,0,0,0,0,0,0,0,0,0,0,0,0,0,0,0,0,0,0,0,0,0,0,0,0,0,0,0,0,0,0,0,0,0,0,0,0,0.5159,0.516,0,0.518,0.5181,0.5181,0.518,0.518,0.518,0.518,0.5198,0.5199,0.52,0,0,0,0,0,0,0,0,0,0,0,0,0,0.5116,0.5117,0.5159,0.516,0.516,0.518,0.5181,0.5181,0.518,0.518,0.518,0.5179,0.5198,0.5199,0.52,0,0,0,0,0,0,0,0,0,0,0,0,0,0.5136,0.5117,0.5159,0.5162,0.5163,0.518,0.5181,0.5181,0.5181,0.518,0.518,0.5179,0.5198,0.5199,0.52,0.5216,0,0,0.5204,0.5204,0,0,0,0,0,0,0,0,0.5135,0.5137,0.5162,0.5162,0.5163,0.5177,0.5172,0.5193,0.5181,0.5174,0.518,0.5179,0.5192,0.5193,0.5198,0.5217,0.5217,0.5204,0.5204,0.5205,0.5205,0,0,0,0,0,0,0,0.5133,0.5136,0.5168,0.5162,0.5163,0.5162,0.5164,0.5176,0.5185,0.5174,0.5174,0.5177,0.5192,0.5197,0.5198,0.5218,0.5204,0.5205,0.5205,0.5206,0.5249,0.525,0,0,0,0,0,0,0.5132,0.5135,0.5167,0.5168,0.5147,0.5163,0.5165,0.5173,0.5185,0.5186,0.5177,0.5177,0.5195,0.5197,0.5199,0.5218,0.5205,0.5206,0.5207,0.5249,0.525,0.525,0,0,0,0,0,0,0.5131,0.5135,0.5166,0.5152,0.5156,0.5164,0.5173,0.5174,0.5179,0.5187,0.5188,0.5181,0.5195,0.5198,0.5212,0.5218,0.5207,0.5208,0.5248,0.5249,0.525,0.5255,0,0,0,0,0,0,0.513,0.5134,0.5141,0.5152,0.5157,0.5179,0.5173,0.5174,0.5181,0.5181,0.5191,0.5192,0.5195,0.521,0.5213,0.522,0.5208,0.5248,0.5249,0.525,0.5255,0.5256,0.5257,0,0,0,0,0,0.5128,0.5141,0.5141,0.5145,0.5165,0.5179,0.5182,0.5186,0.5182,0.5188,0.5193,0.5192,0.5217,0.5211,0.5215,0.5222,0.5247,0.5248,0.525,0.5254,0.5256,0.5257,0,0,0,0,0,0,0.5129,0.5142,0.5143,0.516,0.5169,0.5179,0.5187,0.5188,0.5197,0.5196,0.52,0.5202,0.5216,0.522,0.5214,0.5237,0.5232,0.5234,0.5234,0.5236,0.5237,0.5236,0.5209,0,0,0,0,0,0.5132,0.5143,0.5154,0.5168,0.5172,0.5179,0.5185,0.5188,0.5197,0.52,0.5206,0.5214,0.5224,0.523,0.524,0.5255,0.5257,0.5262,0.5263,0.5265,0.5266,0.5274,0.5276,0.5254,0.5254,0.5254,0,0,0.5136,0.5145,0.5152,0.5168,0.5175,0.5186,0.5182,0.5194,0.5202,0.5201,0.5215,0.522,0.5229,0.5244,0.5251,0.5248,0.5273,0.5266,0.5267,0.5267,0.5275,0.5278,0.528,0.5254,0.5254,0.5254,0,0,0.5151,0.5159,0.5171,0.5179,0.519,0.5194,0.5197,0.5208,0.5212,0.5226,0.5226,0.5235,0.5252,0.5258,0.5264,0.5281,0.528,0.5284,0.5291,0.5299,0.5301,0.5302,0.5308,0.531,0.5285,0.5285,0.5285,0,0.5155,0.5172,0.5177,0.5189,0.5196,0.5198,0.521,0.5216,0.523,0.5234,0.5231,0.5253,0.5259,0.5275,0.5279,0.5284,0.5287,0.5282,0.53,0.5302,0.5303,0.5309,0.5311,0.5285,0.5285,0.5285,0.5285,0,0.5177,0.5189,0.5197,0.5211,0.5219,0.5231,0.5237,0.5245,0.5246,0.5251,0.5265,0.5272,0.5283,0.5288,0.5289,0.5304,0.5302,0.53,0.5294,0.5306,0.5311,0.5313,0.5286,0.5286,0.5286,0.5286,0,0,0.5192,0.5209,0.5212,0.5218,0.5231,0.524,0.5251,0.5263,0.5269,0.5278,0.5288,0.5302,0.53,0.5306,0.5308,0.5316,0.5328,0.5312,0.5313,0.5315,0.5345,0.5346,0.5349,0.5328,0.5328,0.5329,0.5344,0,0.5207,0.5229,0.5234,0.5253,0.5264,0.5265,0.5275,0.5284,0.5288,0.5298,0.5302,0.5312,0.5309,0.5313,0.532,0.5325,0.5334,0.5324,0.5336,0.5336,0.5333,0.5351,0.5353,0.5367,0.5346,0.5346,0.5347,0,0.5228,0.5238,0.5258,0.527,0.5274,0.5284,0.5295,0.5304,0.5313,0.5316,0.5323,0.5324,0.5336,0.533,0.5346,0.5339,0.5344,0.5347,0.5348,0.5348,0.5342,0.5352,0.5371,0.5373,0.535,0.535,0.5349,0,0.5236,0.5255,0.527,0.5275,0.5289,0.5295,0.5301,0.531,0.5317,0.5326,0.533,0.5341,0.5346,0.5354,0.5358,0.5353,0.5373,0.5367,0.5375,0.5375,0.5378,0.5378,0.5398,0.5382,0.5382,0.5382,0.5382,0,0.5252,0.5264,0.5274,0.5283,0.5296,0.5302,0.5314,0.532,0.5328,0.5337,0.5339,0.5347,0.5352,0.5361,0.5364,0.5376,0.5379,0.5381,0.5381,0.538,0.538,0.5383,0.5382,0.5383,0.5383,0.5383,0.5383,0,0.5264,0.5271,0.5287,0.5299,0.5302,0.5311,0.5321,0.5329,0.5334,0.5346,0.5349,0.5356,0.5367,0.5371,0.5384,0.5386,0.54,0.54,0.5397,0.5397,0.5404,0.5403,0.5427,0.543,0.5413,0.5413,0.5413,0,0.5273,0.5283,0.5296,0.5303,0.5309,0.532,0.5327,0.5333,0.534,0.5351,0.5358,0.5369,0.5378,0.5395,0.5401,0.5411,0.5411,0.5418,0.5412,0.5411,0.541,0.5409,0.541,0.5419,0.5419,0.5419,0.542,0,0.529,0.5293,0.5304,0.5316,0.5325,0.5334,0.5343,0.5348,0.5355,0.5363,0.5375,0.5382,0.5395,0.5406,0.5416,0.5421,0.5421,0.5422,0.5424,0.5423,0.542,0.5421,0.54,0.5421,0.5421,0.5421,0.5421,0.5421,0.53,0.5309,0.532,0.5331,0.5339,0.5348,0.5356,0.5363,0.5373,0.5385,0.5387,0.5399,0.5408,0.5422,0.5427,0.5436,0.5434,0.5437,0.5438,0.5439,0.5439,0.542,0.5438,0.5438,0.5438,0.5438,0.5438,0,0.5316,0.5323,0.5334,0.5348,0.5357,0.5358,0.5368,0.5375,0.5386,0.5395,0.5404,0.5417,0.5427,0.5434,0.5445,0.545,0.5451,0.5453,0.5452,0.5453,0.544,0.5437,0.5452,0.5452,0.5452,0.5452,0.5452,0.5452,0.5326,0.534,0.5344,0.5362,0.5369,0.5382,0.5388,0.5395,0.5402,0.5417,0.5426,0.5431,0.5439,0.545,0.5459,0.5461,0.5464,0.5466,0.5468,0.5456,0.5454,0.5453,0.545,0.5467,0.5467,0.548,0.548,0.548]},{"header":{"parameterUnit":"m.s-1","parameterCategory":1,"la1":30.2991,"la2":30.254,"lo1":-89.0895,"lo2":-89.0444,"dy":0.0017,"dx":0.0017,"nx":28,"ny":28,"refTime":"2025-04-25T21:00:00:Z","depth":0,"parameterNumber":3,"parameterNumberName":"V-component_of_WINDS"},"data":[0,0,0,0,0,0,0,0,0,0,0,0,0,0,0,0,0,0,0,0,0,0,0,0,0,0,0,0,0,0,0,0,0,0,0,0,0,0,0,0,0,0,0,0,0,0,0,0,0,0,0,0,0,0,0,0,0,0,0.5069,0.5069,0,0.5073,0.5073,0.5073,0.5043,0.5042,0.5041,0.5041,0.5046,0.5047,0.5048,0,0,0,0,0,0,0,0,0,0,0,0,0,0.5035,0.5036,0.5069,0.5069,0.5069,0.5073,0.5073,0.5073,0.5043,0.5042,0.5041,0.504,0.5046,0.5047,0.5048,0,0,0,0,0,0,0,0,0,0,0,0,0,0.5046,0.5036,0.5069,0.5054,0.5053,0.5073,0.5073,0.5073,0.5044,0.5042,0.5041,0.504,0.5045,0.5047,0.5048,0.5082,0,0,0.5052,0.5053,0,0,0,0,0,0,0,0,0.5045,0.5047,0.5057,0.5055,0.5054,0.5056,0.5063,0.5076,0.5044,0.5047,0.5041,0.5039,0.5051,0.5051,0.5055,0.5082,0.5083,0.5053,0.5053,0.5054,0.5054,0,0,0,0,0,0,0,0.5044,0.5047,0.507,0.5057,0.5055,0.5048,0.5048,0.5065,0.5056,0.5047,0.5045,0.5046,0.505,0.5054,0.5055,0.5083,0.5053,0.5054,0.5055,0.5055,0.5137,0.5138,0,0,0,0,0,0,0.5046,0.5046,0.507,0.5071,0.5046,0.505,0.505,0.5057,0.5056,0.5054,0.5047,0.5044,0.5052,0.5053,0.5055,0.5094,0.5054,0.5055,0.5056,0.5136,0.5137,0.5139,0,0,0,0,0,0,0.5045,0.5048,0.507,0.5058,0.506,0.5051,0.506,0.5058,0.5062,0.5056,0.5054,0.5053,0.5051,0.5053,0.5075,0.5094,0.5056,0.5057,0.5134,0.5136,0.5138,0.5173,0,0,0,0,0,0,0.5044,0.5048,0.5061,0.5058,0.5061,0.509,0.5061,0.5059,0.5064,0.5061,0.5061,0.5059,0.505,0.5073,0.5077,0.5095,0.5058,0.5132,0.5135,0.5137,0.517,0.5176,0.5181,0,0,0,0,0,0.5043,0.5071,0.5062,0.5065,0.5077,0.5091,0.5093,0.5082,0.5066,0.5078,0.5074,0.5059,0.5091,0.5076,0.5079,0.5098,0.5131,0.5134,0.5137,0.5168,0.5175,0.5181,0,0,0,0,0,0,0.5076,0.507,0.506,0.5088,0.509,0.5086,0.5102,0.509,0.5097,0.5094,0.508,0.508,0.5104,0.5104,0.5087,0.5131,0.5108,0.5112,0.513,0.5137,0.5142,0.5142,0.5059,0,0,0,0,0,0.5087,0.5099,0.5093,0.5118,0.512,0.5111,0.5117,0.5108,0.511,0.5111,0.5109,0.5112,0.5122,0.513,0.5139,0.517,0.5169,0.5184,0.519,0.5194,0.5198,0.5213,0.522,0.5149,0.5149,0.5149,0,0,0.5109,0.5107,0.5116,0.5125,0.5126,0.5139,0.5112,0.5127,0.5137,0.5114,0.5134,0.5133,0.5135,0.5161,0.5173,0.5161,0.5217,0.5198,0.5202,0.5203,0.5217,0.5224,0.523,0.5151,0.515,0.515,0,0,0.5156,0.5156,0.5176,0.5177,0.5179,0.5172,0.5177,0.5175,0.5173,0.5193,0.5176,0.5187,0.5206,0.5208,0.5211,0.5258,0.5244,0.5261,0.5289,0.5304,0.531,0.5315,0.5331,0.5337,0.5265,0.5265,0.5265,0,0.5183,0.5202,0.5188,0.5204,0.5209,0.5187,0.5208,0.521,0.5215,0.5218,0.5205,0.5228,0.5228,0.5254,0.5265,0.5269,0.5274,0.5261,0.531,0.5315,0.5319,0.5334,0.5341,0.5267,0.5266,0.5266,0.5266,0,0.5235,0.5248,0.5264,0.5269,0.5275,0.5293,0.5282,0.529,0.5281,0.5275,0.5296,0.5295,0.5304,0.5309,0.53,0.5334,0.5327,0.5312,0.529,0.5328,0.5342,0.5348,0.527,0.5269,0.5268,0.5268,0,0,0.5303,0.5299,0.5305,0.5306,0.5306,0.5316,0.5333,0.5341,0.5348,0.5351,0.5365,0.5381,0.5367,0.5371,0.5362,0.5375,0.5412,0.5359,0.5359,0.5369,0.5448,0.5459,0.5466,0.5402,0.5404,0.5404,0.5448,0,0.5348,0.5377,0.5365,0.5395,0.5406,0.5386,0.5401,0.5402,0.5398,0.5407,0.5402,0.5413,0.5394,0.5397,0.5409,0.5405,0.5427,0.5401,0.5415,0.5416,0.5415,0.5473,0.5485,0.5526,0.5453,0.5454,0.5455,0,0.5405,0.541,0.5441,0.5437,0.5442,0.5455,0.5461,0.547,0.5471,0.5467,0.5471,0.5458,0.5475,0.5452,0.5475,0.5457,0.5462,0.5461,0.5462,0.5463,0.5438,0.5476,0.5539,0.5545,0.5464,0.5463,0.5462,0,0.5451,0.5466,0.5486,0.5487,0.5484,0.5494,0.5493,0.5492,0.5498,0.5503,0.5506,0.5513,0.5517,0.5523,0.5513,0.5497,0.5537,0.5513,0.5534,0.5534,0.5543,0.5542,0.5608,0.5546,0.5546,0.5546,0.5546,0,0.5502,0.5522,0.5506,0.5518,0.5539,0.5525,0.5547,0.5544,0.5543,0.5555,0.5538,0.5549,0.5535,0.5545,0.5537,0.5556,0.5558,0.5555,0.5553,0.5557,0.5557,0.556,0.5557,0.5548,0.5547,0.5547,0.5547,0,0.5558,0.5548,0.5568,0.5563,0.5562,0.5578,0.5573,0.5584,0.5578,0.5593,0.5596,0.5586,0.5597,0.5587,0.5598,0.5592,0.5618,0.5612,0.5618,0.5616,0.5636,0.5635,0.5706,0.5714,0.5648,0.5648,0.5649,0,0.5591,0.5605,0.5601,0.5607,0.5607,0.5617,0.5622,0.5609,0.5615,0.5616,0.5627,0.5636,0.5642,0.566,0.5655,0.5662,0.5656,0.568,0.5657,0.566,0.5656,0.5655,0.5656,0.5685,0.5686,0.5687,0.5687,0,0.5651,0.5646,0.5653,0.5658,0.5664,0.5668,0.5671,0.5677,0.5663,0.5671,0.5681,0.5686,0.5695,0.5705,0.571,0.5709,0.5696,0.5694,0.5699,0.5703,0.5706,0.5705,0.563,0.5693,0.5692,0.5692,0.5692,0.5691,0.5697,0.5708,0.5706,0.5715,0.5715,0.5718,0.5728,0.5723,0.5731,0.5737,0.5729,0.5741,0.5741,0.5747,0.5748,0.5758,0.5748,0.5755,0.5757,0.5759,0.5762,0.5704,0.5759,0.5759,0.5759,0.5758,0.5758,0,0.5756,0.5753,0.5761,0.5765,0.5772,0.5758,0.576,0.5766,0.5777,0.5778,0.5784,0.5796,0.5804,0.5799,0.5806,0.5815,0.5809,0.5817,0.5816,0.5816,0.5771,0.5765,0.5822,0.5822,0.5822,0.5822,0.5822,0.5822,0.5787,0.5805,0.5799,0.5817,0.5815,0.5827,0.5829,0.5831,0.5831,0.5845,0.5851,0.5848,0.5846,0.5853,0.586,0.5858,0.5861,0.5872,0.5868,0.5826,0.5819,0.5814,0.5808,0.5873,0.5873,0.5913,0.5913,0.5913]}]]